This is the latest recevied weather packets stored in our database for station/object DH0GMA. If no packets are shown the sender has not sent any weather packets the latest 10 day(s).
| Time | Temp. | Humidity | Pressure | Rain* | Wind** | Luminosity | Snow |
|---|---|---|---|---|---|---|---|
| 1777880704 | 17.78° C | 58% | 1013.7 hPa | 0 mm | - | - | - |
| 1777880104 | 17.22° C | 58% | 1013.7 hPa | 0 mm | - | - | - |
| 1777879504 | 16.67° C | 63% | 1013.7 hPa | 0 mm | - | - | - |
| 1777878903 | 16.11° C | 65% | 1013.8 hPa | 0 mm | - | - | - |
| 1777878305 | 15.56° C | 67% | 1013.9 hPa | 0 mm | - | - | - |
| 1777877705 | 15.56° C | 66% | 1013.9 hPa | 0 mm | - | - | - |
| 1777877105 | 15° C | 67% | 1013.7 hPa | 0 mm | - | - | - |
| 1777876505 | 14.44° C | 70% | 1013.9 hPa | 0 mm | - | - | - |
| 1777875905 | 13.89° C | 72% | 1013.8 hPa | 0 mm | - | - | - |
| 1777875305 | 13.33° C | 73% | 1013.7 hPa | 0 mm | - | - | - |
| 1777874705 | 12.78° C | 75% | 1013.9 hPa | 0 mm | - | - | - |
| 1777874105 | 11.67° C | 77% | 1014 hPa | 0 mm | - | - | - |
| 1777873504 | 11.11° C | 77% | 1014 hPa | 0 mm | - | - | - |
| 1777872904 | 11.11° C | 77% | 1014.1 hPa | 0 mm | - | - | - |
| 1777872304 | 11.11° C | 78% | 1014 hPa | 0 mm | - | - | - |
| 1777871704 | 10.56° C | 80% | 1013.9 hPa | 0 mm | - | - | - |
| 1777871104 | 10° C | 80% | 1013.9 hPa | 0 mm | - | - | - |
| 1777870504 | 10° C | 80% | 1014.1 hPa | 0 mm | - | - | - |
| 1777869904 | 9.44° C | 79% | 1013.9 hPa | 0 mm | - | - | - |
| 1777869304 | 9.44° C | 79% | 1013.9 hPa | 0 mm | - | - | - |
| 1777868703 | 9.44° C | 79% | 1013.9 hPa | 0 mm | - | - | - |
| 1777868103 | 9.44° C | 78% | 1014 hPa | 0 mm | - | - | - |
| 1777867505 | 10° C | 78% | 1014 hPa | 0 mm | - | - | - |
| 1777866905 | 10° C | 77% | 1013.9 hPa | 0 mm | - | - | - |
| 1777866305 | 10° C | 76% | 1014 hPa | 0 mm | - | - | - |
* Rain latest hour (hover to see other rain measurements)
** Current wind speed in m/s (hover to see current wind gust speed)